Time,TemperatureF,DewpointF,PressureIn,WindDirection,WindDirectionDegrees,WindSpeedMPH,WindSpeedGustMPH,Humidity,HourlyPrecipIn,Conditions,Clouds,dailyrainin,SoftwareType,DateUTC
2013-02-20 00:00:00,21.9,14.9,30.35,NNE,29,3.0,4.0,74,0.00,,,0.00,WeatherCatV1.02B3,2013-02-20 06:00:00,
2013-02-20 00:05:00,22.8,15.1,30.34,NNE,28,3.0,4.0,72,0.00,,,0.00,WeatherCatV1.02B3,2013-02-20 06:05:00,
2013-02-20 00:10:00,23.5,14.9,30.34,NNE,33,2.0,3.0,69,0.00,,,0.00,WeatherCatV1.02B3,2013-02-20 06:10:00,
2013-02-20 00:15:00,24.0,14.7,30.35,NE,41,1.0,5.0,67,0.00,,,0.00,WeatherCatV1.02B3,2013-02-20 06:15:00,
2013-02-20 00:20:00,24.4,15.0,30.35,NE,44,2.0,5.0,67,0.00,,,0.00,WeatherCatV1.02B3,2013-02-20 06:20:00,
2013-02-20 00:25:00,24.7,14.3,30.36,NNE,23,3.0,4.0,64,0.00,,,0.00,WeatherCatV1.02B3,2013-02-20 06:25:00,
2013-02-20 00:30:00,25.0,14.6,30.36,NE,38,1.0,2.0,64,0.00,,,0.00,WeatherCatV1.02B3,2013-02-20 06:30:00,
2013-02-20 00:35:00,25.1,14.3,30.36,NE,39,1.0,2.0,63,0.00,,,0.00,WeatherCatV1.02B3,2013-02-20 06:35:00,
2013-02-20 00:40:00,25.2,14.4,30.36,NNE,19,2.0,5.0,63,0.00,,,0.00,WeatherCatV1.02B3,2013-02-20 06:40:00,
2013-02-20 00:45:00,25.2,14.4,30.37,NNE,19,1.0,1.0,63,0.00,,,0.00,WeatherCatV1.02B3,2013-02-20 06:45:00,
2013-02-20 00:50:00,25.2,14.4,30.37,NNE,19,0.0,1.0,63,0.00,,,0.00,WeatherCatV1.02B3,2013-02-20 06:50:00,
2013-02-20 00:52:00,25.2,14.0,30.37,NNE,17,2.0,3.0,62,0.00,,,0.00,WeatherCatV1.02B3,2013-02-20 06:52:00,
2013-02-20 00:57:00,25.2,14.0,30.37,NNE,26,1.0,4.0,62,0.00,,,0.00,WeatherCatV1.02B3,2013-02-20 06:57:00,
2013-02-20 01:02:00,25.2,14.0,30.38,North,9,0.0,2.0,62,0.00,,,0.00,WeatherCatV1.02B3,2013-02-20 07:02:00,
2013-02-20 01:07:00,25.2,14.0,30.38,NNE,30,2.0,3.0,62,0.00,,,0.00,WeatherCatV1.02B3,2013-02-20 07:07:00,
2013-02-20 01:12:00,25.2,14.0,30.38,NNE,29,1.0,2.0,62,0.00,,,0.00,WeatherCatV1.02B3,2013-02-20 07:12:00,
2013-02-20 01:17:00,25.2,13.7,30.38,NNE,29,0.0,2.0,61,0.00,,,0.00,WeatherCatV1.02B3,2013-02-20 07:17:00,
2013-02-20 01:22:00,25.2,13.7,30.38,NNE,26,0.0,2.0,61,0.00,,,0.00,WeatherCatV1.02B3,2013-02-20 07:22:00,
2013-02-20 01:27:00,25.2,14.0,30.38,North,355,1.0,3.0,62,0.00,,,0.00,WeatherCatV1.02B3,2013-02-20 07:27:00,
2013-02-20 01:32:00,25.1,13.9,30.37,NNW,340,2.0,4.0,62,0.00,,,0.00,WeatherCatV1.02B3,2013-02-20 07:32:00,
2013-02-20 01:37:00,25.0,13.5,30.38,North,5,1.0,2.0,61,0.00,,,0.00,WeatherCatV1.02B3,2013-02-20 07:37:00,
2013-02-20 01:42:00,25.0,13.1,30.38,NE,47,1.0,6.0,60,0.00,,,0.00,WeatherCatV1.02B3,2013-02-20 07:42:00,
2013-02-20 01:47:00,25.0,13.5,30.38,NNE,21,2.0,2.0,61,0.00,,,0.00,WeatherCatV1.02B3,2013-02-20 07:47:00,
2013-02-20 01:52:00,24.9,13.4,30.38,NNE,22,2.0,6.0,61,0.00,,,0.00,WeatherCatV1.02B3,2013-02-20 07:52:00,
2013-02-20 01:57:00,24.9,13.0,30.38,NE,34,1.0,4.0,60,0.00,,,0.00,WeatherCatV1.02B3,2013-02-20 07:57:00,
2013-02-20 02:05:00,24.9,13.0,30.38,NNE,28,0.0,1.0,60,0.00,,,0.00,WeatherCatV1.02B3,2013-02-20 08:05:00,
2013-02-20 02:10:00,24.8,12.9,30.38,NNE,29,0.0,2.0,60,0.00,,,0.00,WeatherCatV1.02B3,2013-02-20 08:10:00,
2013-02-20 02:15:00,24.8,12.9,30.39,NNE,22,0.0,0.0,60,0.00,,,0.00,WeatherCatV1.02B3,2013-02-20 08:15:00,
2013-02-20 02:20:00,24.7,12.8,30.39,NNE,22,0.0,2.0,60,0.00,,,0.00,WeatherCatV1.02B3,2013-02-20 08:20:00,
2013-02-20 02:25:00,24.6,13.1,30.38,NNE,22,1.0,2.0,61,0.00,,,0.00,WeatherCatV1.02B3,2013-02-20 08:25:00,
2013-02-20 02:30:00,24.5,13.4,30.38,NNE,22,0.0,1.0,62,0.00,,,0.00,WeatherCatV1.02B3,2013-02-20 08:30:00,
2013-02-20 02:35:00,24.4,12.9,30.38,NNE,22,0.0,1.0,61,0.00,,,0.00,WeatherCatV1.02B3,2013-02-20 08:35:00,
2013-02-20 02:40:00,24.3,13.2,30.38,NNE,22,0.0,1.0,62,0.00,,,0.00,WeatherCatV1.02B3,2013-02-20 08:40:00,
2013-02-20 02:45:00,24.2,13.1,30.38,NNE,22,0.0,0.0,62,0.00,,,0.00,WeatherCatV1.02B3,2013-02-20 08:45:00,
2013-02-20 02:50:00,24.1,13.0,30.38,NNE,22,0.0,1.0,62,0.00,,,0.00,WeatherCatV1.02B3,2013-02-20 08:50:00,
2013-02-20 02:55:00,24.0,12.5,30.39,NNE,22,0.0,2.0,61,0.00,,,0.00,WeatherCatV1.02B3,2013-02-20 08:55:00,
2013-02-20 03:00:00,24.0,12.5,30.38,NNE,22,2.0,2.0,61,0.00,,,0.00,WeatherCatV1.02B3,2013-02-20 09:00:00,
2013-02-20 03:05:00,23.9,12.8,30.37,NNE,22,1.0,1.0,62,0.00,,,0.00,WeatherCatV1.02B3,2013-02-20 09:05:00,
2013-02-20 03:10:00,23.9,12.8,30.36,NNE,22,1.0,2.0,62,0.00,,,0.00,WeatherCatV1.02B3,2013-02-20 09:10:00,
2013-02-20 03:19:00,23.9,12.8,30.35,NNE,17,3.0,5.0,62,0.00,,,0.00,WeatherCatV1.02B3,2013-02-20 09:19:00,
2013-02-20 03:24:00,23.9,12.8,30.35,NNE,32,0.0,4.0,62,0.00,,,0.00,WeatherCatV1.02B3,2013-02-20 09:24:00,
2013-02-20 03:29:00,23.9,13.5,30.35,NE,34,2.0,3.0,64,0.00,,,0.00,WeatherCatV1.02B3,2013-02-20 09:29:00,
2013-02-20 03:34:00,23.9,12.8,30.35,NNE,16,2.0,2.0,62,0.00,,,0.00,WeatherCatV1.02B3,2013-02-20 09:34:00,
2013-02-20 03:39:00,24.0,13.3,30.35,NNE,32,1.0,2.0,63,0.00,,,0.00,WeatherCatV1.02B3,2013-02-20 09:39:00,
2013-02-20 03:44:00,24.0,13.3,30.35,NNE,26,3.0,3.0,63,0.00,,,0.00,WeatherCatV1.02B3,2013-02-20 09:44:00,
2013-02-20 03:49:00,24.0,13.6,30.35,NE,34,3.0,5.0,64,0.00,,,0.00,WeatherCatV1.02B3,2013-02-20 09:49:00,
2013-02-20 03:54:00,24.0,13.6,30.35,NE,55,3.0,5.0,64,0.00,,,0.00,WeatherCatV1.02B3,2013-02-20 09:54:00,
2013-02-20 03:59:00,23.9,13.5,30.35,NE,44,1.0,3.0,64,0.00,,,0.00,WeatherCatV1.02B3,2013-02-20 09:59:00,
2013-02-20 04:04:00,23.9,13.2,30.35,NNE,32,1.0,2.0,63,0.00,,,0.00,WeatherCatV1.02B3,2013-02-20 10:04:00,
2013-02-20 04:09:00,23.9,13.5,30.35,NNE,28,2.0,4.0,64,0.00,,,0.00,WeatherCatV1.02B3,2013-02-20 10:09:00,
2013-02-20 04:14:00,23.8,13.4,30.35,NE,41,1.0,3.0,64,0.00,,,0.00,WeatherCatV1.02B3,2013-02-20 10:14:00,
2013-02-20 04:19:00,23.8,13.4,30.35,NNE,22,1.0,4.0,64,0.00,,,0.00,WeatherCatV1.02B3,2013-02-20 10:19:00,
2013-02-20 04:24:00,23.7,13.0,30.36,North,5,2.0,5.0,63,0.00,,,0.00,WeatherCatV1.02B3,2013-02-20 10:24:00,
2013-02-20 04:29:00,23.7,13.0,30.36,NNE,31,0.0,2.0,63,0.00,,,0.00,WeatherCatV1.02B3,2013-02-20 10:29:00,
2013-02-20 04:34:00,23.6,13.2,30.36,NE,51,2.0,5.0,64,0.00,,,0.00,WeatherCatV1.02B3,2013-02-20 10:34:00,
2013-02-20 04:39:00,23.6,12.9,30.36,NE,48,2.0,3.0,63,0.00,,,0.00,WeatherCatV1.02B3,2013-02-20 10:39:00,
2013-02-20 04:44:00,23.6,12.9,30.37,NE,45,2.0,3.0,63,0.00,,,0.00,WeatherCatV1.02B3,2013-02-20 10:44:00,
2013-02-20 04:49:00,23.6,12.9,30.37,NE,49,1.0,2.0,63,0.00,,,0.00,WeatherCatV1.02B3,2013-02-20 10:49:00,
2013-02-20 04:54:00,23.6,13.2,30.37,NE,49,0.0,1.0,64,0.00,,,0.00,WeatherCatV1.02B3,2013-02-20 10:54:00,
2013-02-20 04:59:00,23.6,13.2,30.37,ENE,74,2.0,3.0,64,0.00,,,0.00,WeatherCatV1.02B3,2013-02-20 10:59:00,
2013-02-20 05:04:00,23.6,12.9,30.37,ENE,59,1.0,3.0,63,0.00,,,0.00,WeatherCatV1.02B3,2013-02-20 11:04:00,
2013-02-20 05:09:00,23.5,12.8,30.37,ENE,68,3.0,3.0,63,0.00,,,0.00,WeatherCatV1.02B3,2013-02-20 11:09:00,
2013-02-20 05:14:00,23.5,13.1,30.38,ENE,69,0.0,0.0,64,0.00,,,0.00,WeatherCatV1.02B3,2013-02-20 11:14:00,
2013-02-20 05:19:00,23.5,12.8,30.38,NE,55,3.0,5.0,63,0.00,,,0.00,WeatherCatV1.02B3,2013-02-20 11:19:00,
2013-02-20 05:24:00,23.5,12.4,30.38,NE,53,2.0,3.0,62,0.00,,,0.00,WeatherCatV1.02B3,2013-02-20 11:24:00,
2013-02-20 05:29:00,23.6,12.5,30.38,ENE,63,2.0,3.0,62,0.00,,,0.00,WeatherCatV1.02B3,2013-02-20 11:29:00,
2013-02-20 05:34:00,23.6,12.9,30.38,NE,44,0.0,3.0,63,0.00,,,0.00,WeatherCatV1.02B3,2013-02-20 11:34:00,
2013-02-20 05:39:00,23.6,12.9,30.38,ENE,61,0.0,3.0,63,0.00,,,0.00,WeatherCatV1.02B3,2013-02-20 11:39:00,
2013-02-20 05:44:00,23.5,12.4,30.39,ENE,72,2.0,2.0,62,0.00,,,0.00,WeatherCatV1.02B3,2013-02-20 11:44:00,
2013-02-20 05:49:00,23.6,12.2,30.38,ENE,65,2.0,4.0,61,0.00,,,0.00,WeatherCatV1.02B3,2013-02-20 11:49:00,
2013-02-20 05:54:00,23.6,12.9,30.38,ENE,68,2.0,2.0,63,0.00,,,0.00,WeatherCatV1.02B3,2013-02-20 11:54:00,
2013-02-20 05:59:00,23.6,12.2,30.38,East,94,2.0,6.0,61,0.00,,,0.00,WeatherCatV1.02B3,2013-02-20 11:59:00,
2013-02-20 06:04:00,23.6,11.8,30.38,East,101,2.0,5.0,60,0.00,,,0.00,WeatherCatV1.02B3,2013-02-20 12:04:00,
2013-02-20 06:09:00,23.6,11.4,30.38,ENE,70,2.0,5.0,59,0.00,,,0.00,WeatherCatV1.02B3,2013-02-20 12:09:00,
2013-02-20 06:14:00,23.6,11.4,30.38,NE,42,2.0,6.0,59,0.00,,,0.00,WeatherCatV1.02B3,2013-02-20 12:14:00,
2013-02-20 06:19:00,23.6,11.0,30.38,ENE,64,3.0,9.0,58,0.00,,,0.00,WeatherCatV1.02B3,2013-02-20 12:19:00,
2013-02-20 06:24:00,23.6,11.0,30.38,ESE,109,3.0,5.0,58,0.00,,,0.00,WeatherCatV1.02B3,2013-02-20 12:24:00,
2013-02-20 06:29:00,23.6,11.4,30.38,ENE,67,0.0,3.0,59,0.00,,,0.00,WeatherCatV1.02B3,2013-02-20 12:29:00,
2013-02-20 06:34:00,23.6,11.4,30.39,East,88,1.0,3.0,59,0.00,,,0.00,WeatherCatV1.02B3,2013-02-20 12:34:00,
2013-02-20 06:39:00,23.6,11.8,30.38,ENE,78,0.0,2.0,60,0.00,,,0.00,WeatherCatV1.02B3,2013-02-20 12:39:00,
2013-02-20 06:44:00,23.6,11.4,30.38,ENE,76,2.0,4.0,59,0.00,,,0.00,WeatherCatV1.02B3,2013-02-20 12:44:00,
2013-02-20 06:49:00,23.6,11.8,30.38,NE,55,4.0,4.0,60,0.00,,,0.00,WeatherCatV1.02B3,2013-02-20 12:49:00,
2013-02-20 06:54:00,23.6,11.4,30.38,ENE,62,1.0,5.0,59,0.00,,,0.00,WeatherCatV1.02B3,2013-02-20 12:54:00,
2013-02-20 06:59:00,23.6,11.8,30.38,ENE,67,2.0,3.0,60,0.00,,,0.00,WeatherCatV1.02B3,2013-02-20 12:59:00,
2013-02-20 07:04:00,23.7,11.9,30.38,ENE,78,1.0,4.0,60,0.00,,,0.00,WeatherCatV1.02B3,2013-02-20 13:04:00,
2013-02-20 07:09:00,23.7,11.9,30.39,NE,56,2.0,5.0,60,0.00,,,0.00,WeatherCatV1.02B3,2013-02-20 13:09:00,
2013-02-20 07:14:00,23.7,11.5,30.39,ESE,121,4.0,6.0,59,0.00,,,0.00,WeatherCatV1.02B3,2013-02-20 13:14:00,
2013-02-20 07:19:00,23.7,11.1,30.40,ENE,69,0.0,2.0,58,0.00,,,0.00,WeatherCatV1.02B3,2013-02-20 13:19:00,
2013-02-20 07:24:00,23.7,10.7,30.40,ENE,63,0.0,3.0,57,0.00,,,0.00,WeatherCatV1.02B3,2013-02-20 13:24:00,
2013-02-20 07:29:00,23.8,11.2,30.40,SE,140,1.0,1.0,58,0.00,,,0.00,WeatherCatV1.02B3,2013-02-20 13:29:00,
2013-02-20 07:34:00,23.8,11.2,30.40,SE,130,2.0,2.0,58,0.00,,,0.00,WeatherCatV1.02B3,2013-02-20 13:34:00,
2013-02-20 07:39:00,23.8,11.2,30.41,SE,128,1.0,3.0,58,0.00,,,0.00,WeatherCatV1.02B3,2013-02-20 13:39:00,
2013-02-20 07:44:00,23.9,10.9,30.40,East,88,2.0,3.0,57,0.00,,,0.00,WeatherCatV1.02B3,2013-02-20 13:44:00,
2013-02-20 07:49:00,24.0,10.6,30.40,ESE,109,1.0,3.0,56,0.00,,,0.00,WeatherCatV1.02B3,2013-02-20 13:49:00,
2013-02-20 07:54:00,24.0,11.0,30.40,ESE,117,1.0,2.0,57,0.00,,,0.00,WeatherCatV1.02B3,2013-02-20 13:54:00,
2013-02-20 07:59:00,24.1,11.9,30.39,SE,140,0.0,3.0,59,0.00,,,0.00,WeatherCatV1.02B3,2013-02-20 13:59:00,
2013-02-20 08:04:00,24.2,11.6,30.39,East,91,2.0,3.0,58,0.00,,,0.00,WeatherCatV1.02B3,2013-02-20 14:04:00,
2013-02-20 08:09:00,24.2,11.2,30.40,ESE,123,1.0,3.0,57,0.00,,,0.00,WeatherCatV1.02B3,2013-02-20 14:09:00,
2013-02-20 08:14:00,24.3,10.9,30.40,East,101,1.0,3.0,56,0.00,,,0.00,WeatherCatV1.02B3,2013-02-20 14:14:00,
2013-02-20 08:19:00,24.4,11.8,30.40,ESE,103,1.0,2.0,58,0.00,,,0.00,WeatherCatV1.02B3,2013-02-20 14:19:00,
2013-02-20 08:24:00,24.5,11.9,30.40,ESE,123,3.0,3.0,58,0.00,,,0.00,WeatherCatV1.02B3,2013-02-20 14:24:00,
2013-02-20 08:29:00,24.5,11.9,30.40,ESE,113,4.0,5.0,58,0.00,,,0.00,WeatherCatV1.02B3,2013-02-20 14:29:00,
2013-02-20 08:34:00,24.6,12.0,30.40,ESE,123,2.0,3.0,58,0.00,,,0.00,WeatherCatV1.02B3,2013-02-20 14:34:00,
2013-02-20 08:39:00,24.7,11.3,30.39,East,85,3.0,6.0,56,0.00,,,0.00,WeatherCatV1.02B3,2013-02-20 14:39:00,
2013-02-20 08:44:00,24.7,11.3,30.39,East,90,2.0,3.0,56,0.00,,,0.00,WeatherCatV1.02B3,2013-02-20 14:44:00,
2013-02-20 08:49:00,24.8,11.4,30.39,East,92,1.0,4.0,56,0.00,,,0.00,WeatherCatV1.02B3,2013-02-20 14:49:00,
2013-02-20 08:54:00,24.8,11.4,30.39,ESE,109,2.0,3.0,56,0.00,,,0.00,WeatherCatV1.02B3,2013-02-20 14:54:00,
2013-02-20 08:59:00,24.8,11.4,30.40,ESE,105,1.0,2.0,56,0.00,,,0.00,WeatherCatV1.02B3,2013-02-20 14:59:00,
2013-02-20 09:04:00,24.9,11.5,30.40,East,94,0.0,2.0,56,0.00,,,0.00,WeatherCatV1.02B3,2013-02-20 15:04:00,
2013-02-20 09:09:00,25.0,11.5,30.40,East,98,2.0,2.0,56,0.00,,,0.00,WeatherCatV1.02B3,2013-02-20 15:09:00,
2013-02-20 09:14:00,25.1,11.2,30.39,East,88,1.0,3.0,55,0.00,,,0.00,WeatherCatV1.02B3,2013-02-20 15:14:00,
2013-02-20 09:19:00,25.1,11.2,30.39,East,96,2.0,3.0,55,0.00,,,0.00,WeatherCatV1.02B3,2013-02-20 15:19:00,
2013-02-20 09:24:00,25.2,11.7,30.39,ESE,109,2.0,3.0,56,0.00,,,0.00,WeatherCatV1.02B3,2013-02-20 15:24:00,
2013-02-20 09:29:00,25.3,11.4,30.39,ENE,77,1.0,3.0,55,0.00,,,0.00,WeatherCatV1.02B3,2013-02-20 15:29:00,
2013-02-20 09:34:00,25.4,10.7,30.39,SE,131,3.0,5.0,53,0.00,,,0.00,WeatherCatV1.02B3,2013-02-20 15:34:00,
2013-02-20 09:39:00,25.6,11.7,30.39,SE,126,2.0,4.0,55,0.00,,,0.00,WeatherCatV1.02B3,2013-02-20 15:39:00,
2013-02-20 09:44:00,25.6,11.3,30.39,ESE,111,1.0,2.0,54,0.00,,,0.00,WeatherCatV1.02B3,2013-02-20 15:44:00,
2013-02-20 09:49:00,25.8,11.1,30.39,ESE,119,1.0,2.0,53,0.00,,,0.00,WeatherCatV1.02B3,2013-02-20 15:49:00,
2013-02-20 09:54:00,25.9,11.2,30.39,East,101,1.0,3.0,53,0.00,,,0.00,WeatherCatV1.02B3,2013-02-20 15:54:00,
2013-02-20 09:59:00,26.0,11.7,30.40,East,101,0.0,1.0,54,0.00,,,0.00,WeatherCatV1.02B3,2013-02-20 15:59:00,
2013-02-20 10:04:00,26.1,11.3,30.40,East,82,1.0,2.0,53,0.00,,,0.00,WeatherCatV1.02B3,2013-02-20 16:04:00,
2013-02-20 10:09:00,26.2,11.0,30.39,East,81,1.0,2.0,52,0.00,,,0.00,WeatherCatV1.02B3,2013-02-20 16:09:00,
2013-02-20 10:14:00,26.3,11.5,30.39,East,81,0.0,2.0,53,0.00,,,0.00,WeatherCatV1.02B3,2013-02-20 16:14:00,
2013-02-20 10:19:00,26.4,12.0,30.39,East,81,1.0,1.0,54,0.00,,,0.00,WeatherCatV1.02B3,2013-02-20 16:19:00,
2013-02-20 10:24:00,26.5,11.3,30.39,East,81,1.0,1.0,52,0.00,,,0.00,WeatherCatV1.02B3,2013-02-20 16:24:00,
2013-02-20 10:29:00,26.7,11.5,30.39,East,82,1.0,1.0,52,0.00,,,0.00,WeatherCatV1.02B3,2013-02-20 16:29:00,
2013-02-20 10:34:00,26.8,11.1,30.39,East,82,0.0,0.0,51,0.00,,,0.00,WeatherCatV1.02B3,2013-02-20 16:34:00,
2013-02-20 10:39:00,26.9,11.7,30.39,East,86,1.0,2.0,52,0.00,,,0.00,WeatherCatV1.02B3,2013-02-20 16:39:00,
2013-02-20 10:44:00,27.0,11.3,30.39,NE,53,0.0,3.0,51,0.00,,,0.00,WeatherCatV1.02B3,2013-02-20 16:44:00,
2013-02-20 10:49:00,27.1,11.8,30.39,NE,54,0.0,2.0,52,0.00,,,0.00,WeatherCatV1.02B3,2013-02-20 16:49:00,
2013-02-20 10:54:00,27.3,11.6,30.39,NE,39,1.0,2.0,51,0.00,,,0.00,WeatherCatV1.02B3,2013-02-20 16:54:00,
2013-02-20 10:55:00,27.3,12.0,30.39,NE,39,1.0,2.0,52,0.00,,,0.00,WeatherCatV1.02B3,2013-02-20 16:55:00,
2013-02-20 11:00:00,27.5,12.6,30.39,NE,38,0.0,2.0,53,0.00,,,0.00,WeatherCatV1.02B3,2013-02-20 17:00:00,
2013-02-20 11:05:00,27.6,12.7,30.39,NE,40,2.0,2.0,53,0.00,,,0.00,WeatherCatV1.02B3,2013-02-20 17:05:00,
2013-02-20 11:10:00,27.8,12.5,30.38,NE,39,2.0,3.0,52,0.00,,,0.00,WeatherCatV1.02B3,2013-02-20 17:10:00,
2013-02-20 11:15:00,28.0,12.7,30.38,ENE,66,4.0,6.0,52,0.00,,,0.00,WeatherCatV1.02B3,2013-02-20 17:15:00,
2013-02-20 11:20:00,28.1,12.8,30.38,NE,39,1.0,3.0,52,0.00,,,0.00,WeatherCatV1.02B3,2013-02-20 17:20:00,
2013-02-20 11:25:00,28.2,12.4,30.39,ENE,59,2.0,3.0,51,0.00,,,0.00,WeatherCatV1.02B3,2013-02-20 17:25:00,
2013-02-20 11:30:00,28.3,12.5,30.39,NNW,337,2.0,2.0,51,0.00,,,0.00,WeatherCatV1.02B3,2013-02-20 17:30:00,
2013-02-20 11:35:00,28.4,13.0,30.39,NE,48,0.0,3.0,52,0.00,,,0.00,WeatherCatV1.02B3,2013-02-20 17:35:00,
2013-02-20 11:40:00,28.6,12.3,30.39,NE,53,3.0,4.0,50,0.00,,,0.00,WeatherCatV1.02B3,2013-02-20 17:40:00,
2013-02-20 11:45:00,28.7,12.9,30.40,ENE,76,0.0,1.0,51,0.00,,,0.00,WeatherCatV1.02B3,2013-02-20 17:45:00,
2013-02-20 11:50:00,28.8,12.1,30.40,ENE,63,1.0,4.0,49,0.00,,,0.00,WeatherCatV1.02B3,2013-02-20 17:50:00,
2013-02-20 11:55:00,28.8,11.6,30.39,ESE,109,1.0,3.0,48,0.00,,,0.00,WeatherCatV1.02B3,2013-02-20 17:55:00,
2013-02-20 12:00:00,28.9,12.2,30.40,ESE,118,1.0,3.0,49,0.00,,,0.00,WeatherCatV1.02B3,2013-02-20 18:00:00,
2013-02-20 12:05:00,29.0,12.3,30.39,East,99,0.0,3.0,49,0.00,,,0.00,WeatherCatV1.02B3,2013-02-20 18:05:00,
2013-02-20 12:10:00,29.1,12.8,30.39,ESE,121,3.0,3.0,50,0.00,,,0.00,WeatherCatV1.02B3,2013-02-20 18:10:00,
2013-02-20 12:15:00,29.3,13.0,30.38,SE,127,2.0,4.0,50,0.00,,,0.00,WeatherCatV1.02B3,2013-02-20 18:15:00,
2013-02-20 12:20:00,29.5,12.7,30.37,SE,128,4.0,4.0,49,0.00,,,0.00,WeatherCatV1.02B3,2013-02-20 18:20:00,
2013-02-20 12:25:00,29.9,13.1,30.36,NE,54,3.0,7.0,49,0.00,,,0.00,WeatherCatV1.02B3,2013-02-20 18:25:00,
2013-02-20 12:30:00,30.4,13.1,30.35,ESE,122,2.0,5.0,48,0.00,,,0.00,WeatherCatV1.02B3,2013-02-20 18:30:00,
2013-02-20 12:35:00,30.6,12.3,30.35,ESE,122,3.0,6.0,46,0.00,,,0.00,WeatherCatV1.02B3,2013-02-20 18:35:00,
2013-02-20 12:40:00,30.8,13.0,30.34,East,89,5.0,7.0,47,0.00,,,0.00,WeatherCatV1.02B3,2013-02-20 18:40:00,
2013-02-20 12:45:00,31.0,12.2,30.33,NE,52,6.0,11.0,45,0.00,,,0.00,WeatherCatV1.02B3,2013-02-20 18:45:00,
2013-02-20 12:50:00,31.2,13.8,30.33,ESE,118,4.0,8.0,48,0.00,,,0.00,WeatherCatV1.02B3,2013-02-20 18:50:00,
2013-02-20 12:55:00,31.8,13.4,30.32,SE,126,3.0,5.0,46,0.00,,,0.00,WeatherCatV1.02B3,2013-02-20 18:55:00,
2013-02-20 13:00:00,32.4,12.4,30.32,ENE,66,4.0,9.0,43,0.00,,,0.00,WeatherCatV1.02B3,2013-02-20 19:00:00,
2013-02-20 13:05:00,32.9,12.9,30.32,ESE,122,7.0,7.0,43,0.00,,,0.00,WeatherCatV1.02B3,2013-02-20 19:05:00,
2013-02-20 13:10:00,33.2,13.7,30.33,SE,127,3.0,4.0,44,0.00,,,0.00,WeatherCatV1.02B3,2013-02-20 19:10:00,
2013-02-20 13:15:00,33.4,12.8,30.31,ESE,105,4.0,6.0,42,0.00,,,0.00,WeatherCatV1.02B3,2013-02-20 19:15:00,
2013-02-20 13:20:00,33.6,13.0,30.32,ESE,120,0.0,3.0,42,0.00,,,0.00,WeatherCatV1.02B3,2013-02-20 19:20:00,
2013-02-20 13:25:00,33.9,14.3,30.32,East,98,2.0,2.0,44,0.00,,,0.00,WeatherCatV1.02B3,2013-02-20 19:25:00,
2013-02-20 13:30:00,33.9,13.8,30.31,SE,124,3.0,5.0,43,0.00,,,0.00,WeatherCatV1.02B3,2013-02-20 19:30:00,
2013-02-20 13:35:00,33.7,13.1,30.31,ENE,63,1.0,5.0,42,0.00,,,0.00,WeatherCatV1.02B3,2013-02-20 19:35:00,
2013-02-20 13:40:00,33.6,12.4,30.31,East,85,2.0,5.0,41,0.00,,,0.00,WeatherCatV1.02B3,2013-02-20 19:40:00,
2013-02-20 13:45:00,33.6,13.5,30.31,ENE,66,1.0,3.0,43,0.00,,,0.00,WeatherCatV1.02B3,2013-02-20 19:45:00,
2013-02-20 13:50:00,33.6,14.0,30.31,ESE,115,0.0,2.0,44,0.00,,,0.00,WeatherCatV1.02B3,2013-02-20 19:50:00,
2013-02-20 13:52:00,33.6,14.6,30.30,ESE,111,3.0,3.0,45,0.00,,,0.00,WeatherCatV1.02B3,2013-02-20 19:52:00,
2013-02-20 13:57:00,33.6,11.9,30.30,ESE,111,3.0,5.0,40,0.00,,,0.00,WeatherCatV1.02B3,2013-02-20 19:57:00,
2013-02-20 14:02:00,33.5,12.9,30.29,ESE,103,4.0,4.0,42,0.00,,,0.00,WeatherCatV1.02B3,2013-02-20 20:02:00,
2013-02-20 14:07:00,33.6,12.4,30.29,ENE,72,2.0,5.0,41,0.00,,,0.00,WeatherCatV1.02B3,2013-02-20 20:07:00,
2013-02-20 14:12:00,33.7,12.0,30.28,SE,130,0.0,6.0,40,0.00,,,0.00,WeatherCatV1.02B3,2013-02-20 20:12:00,
2013-02-20 14:17:00,33.9,12.7,30.28,ESE,117,3.0,4.0,41,0.00,,,0.00,WeatherCatV1.02B3,2013-02-20 20:17:00,
2013-02-20 14:22:00,34.0,11.7,30.28,ESE,117,5.0,5.0,39,0.00,,,0.00,WeatherCatV1.02B3,2013-02-20 20:22:00,
2013-02-20 14:27:00,34.1,12.3,30.28,ESE,116,1.0,5.0,40,0.00,,,0.00,WeatherCatV1.02B3,2013-02-20 20:27:00,
2013-02-20 14:32:00,34.2,11.3,30.28,SE,130,4.0,6.0,38,0.00,,,0.00,WeatherCatV1.02B3,2013-02-20 20:32:00,
2013-02-20 14:37:00,34.2,11.3,30.28,East,80,0.0,2.0,38,0.00,,,0.00,WeatherCatV1.02B3,2013-02-20 20:37:00,
2013-02-20 14:42:00,34.2,13.0,30.28,ESE,107,2.0,6.0,41,0.00,,,0.00,WeatherCatV1.02B3,2013-02-20 20:42:00,
2013-02-20 14:47:00,34.2,11.3,30.28,SE,143,3.0,4.0,38,0.00,,,0.00,WeatherCatV1.02B3,2013-02-20 20:47:00,
2013-02-20 14:52:00,34.1,11.2,30.28,ENE,69,1.0,3.0,38,0.00,,,0.00,WeatherCatV1.02B3,2013-02-20 20:52:00,
2013-02-20 14:57:00,34.1,11.8,30.28,ESE,115,2.0,3.0,39,0.00,,,0.00,WeatherCatV1.02B3,2013-02-20 20:57:00,
2013-02-20 15:02:00,34.1,11.8,30.28,ENE,70,2.0,3.0,39,0.00,,,0.00,WeatherCatV1.02B3,2013-02-20 21:02:00,
2013-02-20 15:07:00,34.2,11.9,30.27,ENE,66,4.0,5.0,39,0.00,,,0.00,WeatherCatV1.02B3,2013-02-20 21:07:00,
2013-02-20 15:12:00,34.2,12.4,30.27,East,98,3.0,6.0,40,0.00,,,0.00,WeatherCatV1.02B3,2013-02-20 21:12:00,
2013-02-20 15:17:00,34.2,12.4,30.27,NE,50,4.0,8.0,40,0.00,,,0.00,WeatherCatV1.02B3,2013-02-20 21:17:00,
2013-02-20 15:22:00,34.3,11.9,30.27,SE,128,3.0,3.0,39,0.00,,,0.00,WeatherCatV1.02B3,2013-02-20 21:22:00,
2013-02-20 15:27:00,34.3,11.9,30.27,ENE,59,4.0,5.0,39,0.00,,,0.00,WeatherCatV1.02B3,2013-02-20 21:27:00,
2013-02-20 15:32:00,34.2,11.3,30.27,NE,38,4.0,6.0,38,0.00,,,0.00,WeatherCatV1.02B3,2013-02-20 21:32:00,
2013-02-20 15:37:00,34.1,11.2,30.26,NE,38,4.0,5.0,38,0.00,,,0.00,WeatherCatV1.02B3,2013-02-20 21:37:00,
2013-02-20 15:42:00,34.1,11.8,30.27,East,88,5.0,6.0,39,0.00,,,0.00,WeatherCatV1.02B3,2013-02-20 21:42:00,
2013-02-20 15:47:00,34.0,11.7,30.27,ENE,72,3.0,6.0,39,0.00,,,0.00,WeatherCatV1.02B3,2013-02-20 21:47:00,
2013-02-20 15:52:00,33.9,12.7,30.27,NE,54,3.0,9.0,41,0.00,,,0.00,WeatherCatV1.02B3,2013-02-20 21:52:00,
2013-02-20 15:57:00,33.9,12.2,30.27,ENE,69,2.0,7.0,40,0.00,,,0.00,WeatherCatV1.02B3,2013-02-20 21:57:00,
2013-02-20 16:02:00,33.9,12.2,30.27,NE,39,5.0,5.0,40,0.00,,,0.00,WeatherCatV1.02B3,2013-02-20 22:02:00,
2013-02-20 16:07:00,33.9,12.7,30.27,NE,45,4.0,4.0,41,0.00,,,0.00,WeatherCatV1.02B3,2013-02-20 22:07:00,
2013-02-20 16:12:00,33.9,13.3,30.27,NE,42,4.0,5.0,42,0.00,,,0.00,WeatherCatV1.02B3,2013-02-20 22:12:00,
2013-02-20 16:17:00,33.9,13.3,30.27,East,94,1.0,3.0,42,0.00,,,0.00,WeatherCatV1.02B3,2013-02-20 22:17:00,
2013-02-20 16:22:00,34.0,13.3,30.26,East,81,3.0,7.0,42,0.00,,,0.00,WeatherCatV1.02B3,2013-02-20 22:22:00,
2013-02-20 16:27:00,34.0,13.3,30.26,East,80,1.0,4.0,42,0.00,,,0.00,WeatherCatV1.02B3,2013-02-20 22:27:00,
2013-02-20 16:32:00,34.0,13.3,30.27,ESE,112,3.0,5.0,42,0.00,,,0.00,WeatherCatV1.02B3,2013-02-20 22:32:00,
2013-02-20 16:37:00,33.9,13.8,30.26,East,85,1.0,2.0,43,0.00,,,0.00,WeatherCatV1.02B3,2013-02-20 22:37:00,
2013-02-20 16:42:00,33.8,13.7,30.26,East,84,2.0,6.0,43,0.00,,,0.00,WeatherCatV1.02B3,2013-02-20 22:42:00,
2013-02-20 16:47:00,33.7,14.1,30.26,East,94,2.0,4.0,44,0.00,,,0.00,WeatherCatV1.02B3,2013-02-20 22:47:00,
2013-02-20 16:52:00,33.6,14.6,30.26,ESE,104,5.0,7.0,45,0.00,,,0.00,WeatherCatV1.02B3,2013-02-20 22:52:00,
2013-02-20 16:57:00,33.5,13.9,30.26,SE,146,2.0,5.0,44,0.00,,,0.00,WeatherCatV1.02B3,2013-02-20 22:57:00,
2013-02-20 17:02:00,33.5,14.5,30.25,SE,134,0.0,3.0,45,0.00,,,0.00,WeatherCatV1.02B3,2013-02-20 23:02:00,
2013-02-20 17:07:00,33.5,15.0,30.26,ESE,121,2.0,2.0,46,0.00,,,0.00,WeatherCatV1.02B3,2013-02-20 23:07:00,
2013-02-20 17:12:00,33.5,13.9,30.26,East,84,1.0,5.0,44,0.00,,,0.00,WeatherCatV1.02B3,2013-02-20 23:12:00,
2013-02-20 17:17:00,33.4,13.3,30.26,SE,124,5.0,7.0,43,0.00,,,0.00,WeatherCatV1.02B3,2013-02-20 23:17:00,
2013-02-20 17:22:00,33.3,13.2,30.25,ESE,108,2.0,8.0,43,0.00,,,0.00,WeatherCatV1.02B3,2013-02-20 23:22:00,
2013-02-20 17:27:00,33.2,13.7,30.25,East,98,3.0,8.0,44,0.00,,,0.00,WeatherCatV1.02B3,2013-02-20 23:27:00,
2013-02-20 17:32:00,33.1,13.1,30.25,East,99,5.0,8.0,43,0.00,,,0.00,WeatherCatV1.02B3,2013-02-20 23:32:00,
2013-02-20 17:37:00,33.0,11.9,30.25,SE,136,4.0,8.0,41,0.00,,,0.00,WeatherCatV1.02B3,2013-02-20 23:37:00,
2013-02-20 17:42:00,32.9,12.4,30.25,ESE,109,4.0,7.0,42,0.00,,,0.00,WeatherCatV1.02B3,2013-02-20 23:42:00,
2013-02-20 17:47:00,32.8,12.3,30.25,ESE,121,4.0,9.0,42,0.00,,,0.00,WeatherCatV1.02B3,2013-02-20 23:47:00,
2013-02-20 17:52:00,32.7,12.7,30.25,ESE,111,3.0,9.0,43,0.00,,,0.00,WeatherCatV1.02B3,2013-02-20 23:52:00,
2013-02-20 17:57:00,32.6,12.6,30.25,SE,125,3.0,10.0,43,0.00,,,0.00,WeatherCatV1.02B3,2013-02-20 23:57:00,
2013-02-20 18:02:00,32.6,13.1,30.25,ESE,118,3.0,7.0,44,0.00,,,0.00,WeatherCatV1.02B3,2013-02-21 00:02:00,
2013-02-20 18:07:00,32.5,13.5,30.25,ESE,117,1.0,3.0,45,0.00,,,0.00,WeatherCatV1.02B3,2013-02-21 00:07:00,
2013-02-20 18:12:00,32.5,14.0,30.25,SE,136,9.0,10.0,46,0.00,,,0.00,WeatherCatV1.02B3,2013-02-21 00:12:00,
2013-02-20 18:17:00,32.4,13.5,30.25,ESE,121,2.0,7.0,45,0.00,,,0.00,WeatherCatV1.02B3,2013-02-21 00:17:00,
2013-02-20 18:22:00,32.4,13.5,30.25,ESE,121,2.0,5.0,45,0.00,,,0.00,WeatherCatV1.02B3,2013-02-21 00:22:00,
2013-02-20 18:27:00,32.4,14.0,30.25,ESE,117,7.0,9.0,46,0.00,,,0.00,WeatherCatV1.02B3,2013-02-21 00:27:00,
2013-02-20 18:32:00,32.3,13.9,30.25,ESE,120,8.0,8.0,46,0.00,,,0.00,WeatherCatV1.02B3,2013-02-21 00:32:00,
2013-02-20 18:37:00,32.3,12.9,30.25,ESE,111,7.0,9.0,44,0.00,,,0.00,WeatherCatV1.02B3,2013-02-21 00:37:00,
2013-02-20 18:42:00,32.2,12.8,30.25,ESE,121,3.0,9.0,44,0.00,,,0.00,WeatherCatV1.02B3,2013-02-21 00:42:00,
2013-02-20 18:47:00,32.2,12.8,30.25,SE,130,5.0,9.0,44,0.00,,,0.00,WeatherCatV1.02B3,2013-02-21 00:47:00,
2013-02-20 18:52:00,32.1,13.2,30.25,SE,129,9.0,10.0,45,0.00,,,0.00,WeatherCatV1.02B3,2013-02-21 00:52:00,
2013-02-20 18:57:00,32.1,12.7,30.25,ESE,111,3.0,9.0,44,0.00,,,0.00,WeatherCatV1.02B3,2013-02-21 00:57:00,
2013-02-20 19:02:00,32.1,13.2,30.25,SE,128,2.0,8.0,45,0.00,,,0.00,WeatherCatV1.02B3,2013-02-21 01:02:00,
2013-02-20 19:07:00,32.0,13.1,30.25,ESE,107,7.0,7.0,45,0.00,,,0.00,WeatherCatV1.02B3,2013-02-21 01:07:00,
2013-02-20 19:12:00,32.0,13.6,30.25,ESE,103,7.0,9.0,46,0.00,,,0.00,WeatherCatV1.02B3,2013-02-21 01:12:00,
2013-02-20 19:17:00,32.0,13.6,30.24,SSE,157,3.0,7.0,46,0.00,,,0.00,WeatherCatV1.02B3,2013-02-21 01:17:00,
2013-02-20 19:22:00,32.0,13.6,30.24,East,94,6.0,9.0,46,0.00,,,0.00,WeatherCatV1.02B3,2013-02-21 01:22:00,
2013-02-20 19:27:00,32.0,13.6,30.24,ESE,121,4.0,10.0,46,0.00,,,0.00,WeatherCatV1.02B3,2013-02-21 01:27:00,
2013-02-20 19:32:00,31.9,14.0,30.24,ESE,120,5.0,7.0,47,0.00,,,0.00,WeatherCatV1.02B3,2013-02-21 01:32:00,
2013-02-20 19:37:00,31.9,13.5,30.24,East,99,5.0,8.0,46,0.00,,,0.00,WeatherCatV1.02B3,2013-02-21 01:37:00,
2013-02-20 19:42:00,31.9,14.0,30.23,ESE,107,2.0,9.0,47,0.00,,,0.00,WeatherCatV1.02B3,2013-02-21 01:42:00,
2013-02-20 19:47:00,31.8,14.4,30.23,East,99,8.0,9.0,48,0.00,,,0.00,WeatherCatV1.02B3,2013-02-21 01:47:00,
2013-02-20 19:52:00,31.8,13.4,30.23,ESE,113,3.0,10.0,46,0.00,,,0.00,WeatherCatV1.02B3,2013-02-21 01:52:00,
2013-02-20 19:57:00,31.9,14.0,30.23,SE,140,1.0,8.0,47,0.00,,,0.00,WeatherCatV1.02B3,2013-02-21 01:57:00,
2013-02-20 20:02:00,31.9,14.5,30.23,East,92,5.0,6.0,48,0.00,,,0.00,WeatherCatV1.02B3,2013-02-21 02:02:00,
2013-02-20 20:07:00,31.9,14.0,30.24,East,92,7.0,10.0,47,0.00,,,0.00,WeatherCatV1.02B3,2013-02-21 02:07:00,
2013-02-20 20:13:00,31.9,14.0,30.24,ESE,106,3.0,6.0,47,0.00,,,0.00,WeatherCatV1.02B3,2013-02-21 02:13:00,
2013-02-20 20:18:00,31.9,14.5,30.24,ESE,104,3.0,7.0,48,0.00,,,0.00,WeatherCatV1.02B3,2013-02-21 02:18:00,
2013-02-20 20:23:00,31.9,14.5,30.23,ESE,123,5.0,7.0,48,0.00,,,0.00,WeatherCatV1.02B3,2013-02-21 02:23:00,
2013-02-20 20:28:00,31.9,14.5,30.23,East,91,2.0,8.0,48,0.00,,,0.00,WeatherCatV1.02B3,2013-02-21 02:28:00,
2013-02-20 20:33:00,31.9,14.5,30.23,ESE,121,9.0,9.0,48,0.00,,,0.00,WeatherCatV1.02B3,2013-02-21 02:33:00,
2013-02-20 20:38:00,31.9,14.0,30.24,ESE,106,4.0,7.0,47,0.00,,,0.00,WeatherCatV1.02B3,2013-02-21 02:38:00,
2013-02-20 20:43:00,31.9,14.0,30.23,East,87,9.0,11.0,47,0.00,,,0.00,WeatherCatV1.02B3,2013-02-21 02:43:00,
2013-02-20 20:48:00,31.9,13.5,30.23,ESE,123,3.0,7.0,46,0.00,,,0.00,WeatherCatV1.02B3,2013-02-21 02:48:00,
2013-02-20 20:53:00,31.9,13.5,30.23,ESE,112,3.0,14.0,46,0.00,,,0.00,WeatherCatV1.02B3,2013-02-21 02:53:00,
2013-02-20 20:58:00,31.9,14.0,30.23,ESE,111,3.0,7.0,47,0.00,,,0.00,WeatherCatV1.02B3,2013-02-21 02:58:00,
2013-02-20 21:03:00,31.9,14.0,30.23,East,99,2.0,6.0,47,0.00,,,0.00,WeatherCatV1.02B3,2013-02-21 03:03:00,
2013-02-20 21:08:00,31.8,13.4,30.23,ESE,116,3.0,9.0,46,0.00,,,0.00,WeatherCatV1.02B3,2013-02-21 03:08:00,
2013-02-20 21:13:00,31.8,13.4,30.24,SE,126,11.0,12.0,46,0.00,,,0.00,WeatherCatV1.02B3,2013-02-21 03:13:00,
2013-02-20 21:18:00,31.9,13.0,30.24,East,99,6.0,7.0,45,0.00,,,0.00,WeatherCatV1.02B3,2013-02-21 03:18:00,
2013-02-20 21:23:00,31.9,13.0,30.24,ESE,116,4.0,13.0,45,0.00,,,0.00,WeatherCatV1.02B3,2013-02-21 03:23:00,
2013-02-20 21:28:00,31.8,13.4,30.24,SE,146,4.0,8.0,46,0.00,,,0.00,WeatherCatV1.02B3,2013-02-21 03:28:00,
2013-02-20 21:33:00,31.9,13.5,30.24,SE,142,7.0,11.0,46,0.00,,,0.00,WeatherCatV1.02B3,2013-02-21 03:33:00,
2013-02-20 21:38:00,31.8,13.9,30.23,ESE,119,3.0,7.0,47,0.00,,,0.00,WeatherCatV1.02B3,2013-02-21 03:38:00,
2013-02-20 21:43:00,31.8,13.4,30.23,ESE,115,8.0,13.0,46,0.00,,,0.00,WeatherCatV1.02B3,2013-02-21 03:43:00,
2013-02-20 21:47:00,31.7,13.3,30.23,ESE,107,4.0,10.0,46,0.00,,,0.00,WeatherCatV1.02B3,2013-02-21 03:47:00,
2013-02-20 21:52:00,31.7,13.3,30.24,ESE,118,10.0,11.0,46,0.00,,,0.00,WeatherCatV1.02B3,2013-02-21 03:52:00,
2013-02-20 21:57:00,31.7,13.3,30.23,ESE,114,4.0,15.0,46,0.00,,,0.00,WeatherCatV1.02B3,2013-02-21 03:57:00,
2013-02-20 22:03:00,31.7,13.3,30.23,ESE,123,5.0,11.0,46,0.00,,,0.00,WeatherCatV1.02B3,2013-02-21 04:03:00,
2013-02-20 22:08:00,31.6,13.2,30.22,ESE,117,7.0,13.0,46,0.00,,,0.00,WeatherCatV1.02B3,2013-02-21 04:08:00,
2013-02-20 22:13:00,31.6,13.2,30.22,ESE,103,4.0,8.0,46,0.00,,,0.00,WeatherCatV1.02B3,2013-02-21 04:13:00,
2013-02-20 22:18:00,31.6,13.7,30.22,ESE,105,8.0,9.0,47,0.00,,,0.00,WeatherCatV1.02B3,2013-02-21 04:18:00,
2013-02-20 22:23:00,31.6,13.2,30.22,SE,134,4.0,8.0,46,0.00,,,0.00,WeatherCatV1.02B3,2013-02-21 04:23:00,
2013-02-20 22:28:00,31.5,13.1,30.23,SSE,152,3.0,12.0,46,0.00,,,0.00,WeatherCatV1.02B3,2013-02-21 04:28:00,
2013-02-20 22:33:00,31.5,13.1,30.24,East,101,2.0,8.0,46,0.00,,,0.00,WeatherCatV1.02B3,2013-02-21 04:33:00,
2013-02-20 22:38:00,31.5,14.1,30.24,SE,137,3.0,5.0,48,0.00,,,0.00,WeatherCatV1.02B3,2013-02-21 04:38:00,
2013-02-20 22:43:00,31.5,13.6,30.23,SE,132,5.0,10.0,47,0.00,,,0.00,WeatherCatV1.02B3,2013-02-21 04:43:00,
2013-02-20 22:48:00,31.4,13.5,30.24,SE,125,3.0,7.0,47,0.00,,,0.00,WeatherCatV1.02B3,2013-02-21 04:48:00,
2013-02-20 22:53:00,31.5,13.6,30.23,SE,124,3.0,10.0,47,0.00,,,0.00,WeatherCatV1.02B3,2013-02-21 04:53:00,
2013-02-20 22:58:00,31.4,14.0,30.23,ESE,117,3.0,10.0,48,0.00,,,0.00,WeatherCatV1.02B3,2013-02-21 04:58:00,
2013-02-20 23:00:00,31.4,14.0,30.23,ESE,107,3.0,10.0,48,0.00,,,0.00,WeatherCatV1.02B3,2013-02-21 05:00:00,
2013-02-20 23:05:00,31.4,14.9,30.23,SSE,160,4.0,9.0,50,0.00,,,0.00,WeatherCatV1.02B3,2013-02-21 05:05:00,
2013-02-20 23:10:00,31.3,13.4,30.22,East,96,9.0,14.0,47,0.00,,,0.00,WeatherCatV1.02B3,2013-02-21 05:10:00,
2013-02-20 23:15:00,31.2,13.8,30.23,SE,133,8.0,12.0,48,0.00,,,0.00,WeatherCatV1.02B3,2013-02-21 05:15:00,
2013-02-20 23:20:00,31.1,13.7,30.23,ESE,117,5.0,11.0,48,0.00,,,0.00,WeatherCatV1.02B3,2013-02-21 05:20:00,
2013-02-20 23:25:00,31.1,14.2,30.22,SE,137,6.0,12.0,49,0.00,,,0.00,WeatherCatV1.02B3,2013-02-21 05:25:00,
2013-02-20 23:30:00,31.0,14.1,30.22,SE,125,2.0,9.0,49,0.00,,,0.00,WeatherCatV1.02B3,2013-02-21 05:30:00,
2013-02-20 23:35:00,30.9,13.5,30.22,ESE,115,2.0,8.0,48,0.00,,,0.00,WeatherCatV1.02B3,2013-02-21 05:35:00,
2013-02-20 23:40:00,30.9,14.0,30.22,ESE,119,2.0,8.0,49,0.00,,,0.00,WeatherCatV1.02B3,2013-02-21 05:40:00,
2013-02-20 23:45:00,30.8,13.5,30.22,SE,127,3.0,11.0,48,0.00,,,0.00,WeatherCatV1.02B3,2013-02-21 05:45:00,
2013-02-20 23:50:00,30.8,14.4,30.22,SE,132,3.0,6.0,50,0.00,,,0.00,WeatherCatV1.02B3,2013-02-21 05:50:00,
2013-02-20 23:54:00,30.8,14.4,30.22,SE,132,10.0,10.0,50,0.00,,,0.00,WeatherCatV1.02B3,2013-02-21 05:54:00,
2013-02-20 23:59:00,30.8,14.8,30.22,SE,138,5.0,13.0,51,0.00,,,0.00,WeatherCatV1.02B3,2013-02-21 05:59:00,